STARLINK-30911, 58374

Orbit data source: Space-Track

STARLINK-30911, 58374 is a payload satellite owned by SpaceX/Seattle (US) in LEO that was launched on Mon, 20 Nov 2023 UTC via an FALCON 9 launch vehicle from the Air Force Western Test Range (AFWTR). Payload-class satellites include a variety of spacecraft equipped with specific instruments for various scientific and technological missions. These include communications satellites like Starlink; space stations such as the ISS; scientific satellites like the Hubble; Earth observation satellites from companies like Planet Labs, Umbra, and HawkEye 360; GPS; miniature CubeSats for education and research; and military/defense satellites.

Loading next visibility...
Identifier
58374, 2023-178A
Orbit
LEO
Country
Flag of USUS
Related business
Manufacturer
SpaceX/Seattle
Mission
Operational Commercial Communications
Bus & Motor
STARLINK V2M, Unknown motor
Mass
730 kg wet, ~700 kg dry
Launch date (UTC)
2023-11-20 (3 years ago)
Launch vehicle
FALCON 9
Launch site
Air Force Western Test Range (AFWTR)
Object type
Payload
Rocket body
Debris
Shape & HBR
Box + 2 Pan, 17.7 m
Radar Cross Section
33.884 m², Large (>1 m²)

Expand to show TLE details & history
Last TLE update: 2 days ago

TLE from 2 days ago
0 STARLINK-30911
1 58374U 23178A   26171.47229685  .00003363  00000-0  11064-3 0  9998
2 58374  53.1583 241.8358 0001122  89.0399 271.0732 15.34394926145647
Epoch: 2026-06-20T11:20Z
TLE epoch observation values (Epoch: 2026-06-20T11:20:06.447Z)
Latitude
-0.00005°
Longitude
163.12247°
Altitude
463.605 km
Speed
7.636 km/s
True Right ascension
16h 07m 20s
True Declination
0° 00' 00"
Sunlit
Object was in full shadow at epoch
Visualization orbit readout
Latitude
Unknown
Longitude
Unknown
Altitude
Unknown
Speed
Unknown
Apparent Right ascension
Unknown
Apparent Declination
Unknown
Sunlit
N/A
Visualization observer readout
Local Sidereal Time
21:27:43
Azimuth
Unknown
Elevation
Unknown
Doppler factor
Unknown
Orbital elements
Apogee altitude
463.743 km
Perigee altitude
462.208 km
Semi-major axis
6,841.112 km
Eccentricity
0.00011
Inclination
53.1583°
RAAN
241.8358°
Arg. of periapsis
89.0399°
True anomaly
271.06035°
Mean anomaly
271.0732°
Eccentric anomaly
271.06677°
Mean motion
3.83577 °/min
Orbital period
93.85 mins
BSTAR
0.00011064
Loading maneuver chart data...
Computing Atmospheric mass density...
Loading historical data...
Loading historical data...
Loading historical data...
Loading historical data...
Loading historical data...
Loading historical data...
Loading historical data...

Documentation

Showing up to 5 results
|